• In Hungary
  • List of Countries
  • For 7 days
  • Water Temperature
  • Satellite Maps
  • Weather Map
  • News
  • Weather Widgets
  • user-avatar
    Login

    Hourly Weather Malaya Perevoloka

    Today, 26 September, Wednesday

    Time Temperature Precipitation Wind Pressure Humidity
    00:00 +1°C° 0 mm 3 mps 743 mmHg 83%
    01:00 +1°C° 0 mm 3 mps 743 mmHg 85%
    02:00 +1°C° 0 mm 2 mps 744 mmHg 89%
    03:00 +1°C° 0 mm 2 mps 744 mmHg 91%
    04:00 +1°C° 0 mm 2 mps 744 mmHg 92%
    05:00 0°C° 0 mm 3 mps 744 mmHg 93%
    06:00 +1°C° 0 mm 3 mps 744 mmHg 89%
    07:00 +2°C° 0 mm 3 mps 744 mmHg 85%
    08:00 +3°C° 0 mm 4 mps 745 mmHg 79%
    09:00 +5°C° 0 mm 4 mps 744 mmHg 72%
    10:00 +7°C° 0 mm 5 mps 744 mmHg 65%
    11:00 +8°C° 0 mm 5 mps 743 mmHg 59%
    12:00 +9°C° 0 mm 5 mps 743 mmHg 58%
    13:00 +9°C° 0 mm 6 mps 742 mmHg 57%
    14:00 +9°C° 0 mm 6 mps 741 mmHg 56%
    15:00 +8°C° 0.8 mm 6 mps 740 mmHg 66%
    16:00 +7°C° 0.8 mm 6 mps 739 mmHg 76%
    17:00 +5°C° 0.8 mm 7 mps 738 mmHg 85%
    18:00 +5°C° 1.7 mm 7 mps 737 mmHg 86%
    19:00 +5°C° 1.7 mm 8 mps 735 mmHg 87%
    20:00 +4°C° 1.7 mm 8 mps 734 mmHg 88%
    21:00 +4°C° 1.2 mm 8 mps 732 mmHg 88%
    22:00 +5°C° 1.2 mm 8 mps 731 mmHg 88%
    23:00 +5°C° 1.2 mm 8 mps 730 mmHg 89%

    Tomorrow, 27 September, Thursday

    Time Temperature Precipitation Wind Pressure Humidity
    00:00 +5°C° 1.1 mm 8 mps 729 mmHg 90%
    01:00 +6°C° 1.1 mm 8 mps 729 mmHg 90%
    02:00 +6°C° 1.1 mm 7 mps 728 mmHg 91%
    03:00 +6°C° 0.5 mm 7 mps 728 mmHg 90%
    04:00 +7°C° 0.5 mm 6 mps 729 mmHg 88%
    05:00 +6°C° 0.5 mm 5 mps 729 mmHg 86%
    06:00 +6°C° 0 mm 5 mps 729 mmHg 84%
    07:00 +5°C° 0 mm 6 mps 730 mmHg 82%
    08:00 +5°C° 0 mm 6 mps 730 mmHg 80%
    09:00 +7°C° 0.2 mm 6 mps 731 mmHg 76%
    10:00 +7°C° 0.2 mm 6 mps 731 mmHg 72%
    11:00 +8°C° 0.2 mm 7 mps 731 mmHg 69%
    12:00 +8°C° 0.2 mm 7 mps 732 mmHg 65%
    13:00 +9°C° 0.2 mm 7 mps 732 mmHg 62%
    14:00 +9°C° 0.2 mm 7 mps 732 mmHg 59%
    15:00 +9°C° 0.1 mm 6 mps 733 mmHg 62%
    16:00 +8°C° 0.1 mm 5 mps 733 mmHg 65%
    17:00 +7°C° 0.1 mm 4 mps 733 mmHg 67%
    18:00 +7°C° 0 mm 4 mps 734 mmHg 69%
    19:00 +6°C° 0 mm 4 mps 734 mmHg 71%
    20:00 +5°C° 0 mm 4 mps 734 mmHg 73%
    21:00 +5°C° 0 mm 4 mps 734 mmHg 73%
    22:00 +5°C° 0 mm 4 mps 734 mmHg 73%
    23:00 +5°C° 0 mm 4 mps 734 mmHg 74%

    Day after tomorrow, 28 September, Friday

    Time Temperature Precipitation Wind Pressure Humidity
    00:00 +5°C° 0.2 mm 4 mps 733 mmHg 77%
    01:00 +6°C° 0.2 mm 4 mps 732 mmHg 80%
    02:00 +6°C° 0.2 mm 4 mps 731 mmHg 83%
    03:00 +7°C° 1.1 mm 5 mps 730 mmHg 86%
    04:00 +9°C° 1.1 mm 6 mps 728 mmHg 89%
    05:00 +10°C° 1.1 mm 7 mps 727 mmHg 91%
    06:00 +11°C° 2.6 mm 7 mps 726 mmHg 91%
    07:00 +11°C° 2.6 mm 7 mps 726 mmHg 90%
    08:00 +11°C° 2.6 mm 7 mps 725 mmHg 90%
    09:00 +11°C° 1.3 mm 7 mps 725 mmHg 87%
    10:00 +11°C° 1.3 mm 7 mps 725 mmHg 84%
    11:00 +10°C° 1.3 mm 7 mps 725 mmHg 82%
    12:00 +9°C° 0.3 mm 7 mps 726 mmHg 82%
    13:00 +8°C° 0.3 mm 7 mps 727 mmHg 81%
    14:00 +6°C° 0.3 mm 8 mps 728 mmHg 81%
    15:00 +5°C° 0.1 mm 7 mps 730 mmHg 81%
    16:00 +4°C° 0.1 mm 6 mps 731 mmHg 81%
    17:00 +5°C° 0.1 mm 4 mps 733 mmHg 82%
    18:00 +4°C° 0 mm 4 mps 734 mmHg 83%
    19:00 +3°C° 0 mm 3 mps 735 mmHg 84%
    20:00 +2°C° 0 mm 3 mps 736 mmHg 85%
    21:00 +2°C° 0 mm 3 mps 736 mmHg 86%
    22:00 +2°C° 0 mm 2 mps 736 mmHg 87%
    23:00 +2°C° 0 mm 2 mps 737 mmHg 87%

    29 September, Saturday

    Time Temperature Precipitation Wind Pressure Humidity
    00:00 +2°C° 0 mm 2 mps 737 mmHg 89%
    01:00 +1°C° 0 mm 2 mps 738 mmHg 90%
    02:00 +1°C° 0 mm 2 mps 738 mmHg 91%
    03:00 +1°C° 0 mm 2 mps 739 mmHg 91%
    04:00 +2°C° 0 mm 1 mps 739 mmHg 91%
    05:00 +1°C° 0 mm 1 mps 740 mmHg 92%
    06:00 +2°C° 0 mm 1 mps 740 mmHg 87%
    07:00 +3°C° 0 mm 1 mps 741 mmHg 82%
    08:00 +4°C° 0 mm 1 mps 741 mmHg 77%
    09:00 +5°C° 0 mm 2 mps 742 mmHg 69%
    10:00 +6°C° 0 mm 2 mps 742 mmHg 62%
    11:00 +7°C° 0 mm 3 mps 743 mmHg 54%
    12:00 +7°C° 0 mm 3 mps 743 mmHg 53%
    13:00 +8°C° 0 mm 3 mps 743 mmHg 51%
    14:00 +8°C° 0 mm 3 mps 743 mmHg 50%
    15:00 +7°C° 0 mm 2 mps 744 mmHg 56%
    16:00 +6°C° 0 mm 2 mps 744 mmHg 61%
    17:00 +6°C° 0 mm 1 mps 744 mmHg 67%
    18:00 +5°C° 0 mm 1 mps 744 mmHg 70%
    19:00 +4°C° 0 mm 1 mps 745 mmHg 73%
    20:00 +2°C° 0 mm 0 mps 745 mmHg 76%
    21:00 +3°C° 0 mm 1 mps 745 mmHg 78%
    22:00 +3°C° 0 mm 1 mps 745 mmHg 79%
    23:00 +2°C° 0 mm 1 mps 745 mmHg 81%

    30 September, Sunday

    Time Temperature Precipitation Wind Pressure Humidity
    00:00 +1°C° 0 mm 2 mps 745 mmHg 82%
    01:00 +1°C° 0 mm 2 mps 745 mmHg 84%
    02:00 +1°C° 0 mm 2 mps 745 mmHg 86%
    03:00 +1°C° 0 mm 2 mps 745 mmHg 87%
    04:00 +1°C° 0 mm 2 mps 745 mmHg 88%
    05:00 +1°C° 0 mm 2 mps 745 mmHg 90%
    06:00 +1°C° 0 mm 3 mps 745 mmHg 87%
    07:00 +2°C° 0 mm 3 mps 745 mmHg 84%
    08:00 +3°C° 0 mm 3 mps 745 mmHg 81%
    09:00 +4°C° 0 mm 4 mps 744 mmHg 75%
    10:00 +6°C° 0 mm 4 mps 744 mmHg 69%
    11:00 +8°C° 0 mm 5 mps 744 mmHg 62%
    12:00 +8°C° 0.1 mm 5 mps 744 mmHg 65%
    13:00 +8°C° 0.1 mm 5 mps 743 mmHg 68%
    14:00 +8°C° 0.1 mm 5 mps 743 mmHg 71%
    15:00 +7°C° 0.1 mm 5 mps 743 mmHg 72%
    16:00 +7°C° 0.1 mm 5 mps 742 mmHg 73%
    17:00 +7°C° 0.1 mm 5 mps 742 mmHg 74%
    18:00 +6°C° 0 mm 5 mps 742 mmHg 75%
    19:00 +6°C° 0 mm 4 mps 742 mmHg 77%
    20:00 +6°C° 0 mm 4 mps 742 mmHg 78%
    21:00 +6°C° 0 mm 4 mps 742 mmHg 79%
    22:00 +6°C° 0 mm 4 mps 742 mmHg 81%
    23:00 +6°C° 0 mm 4 mps 742 mmHg 83%

    1 October, Monday

    Time Temperature Precipitation Wind Pressure Humidity
    00:00 +6°C° 0 mm 4 mps 742 mmHg 82%
    01:00 +6°C° 0 mm 4 mps 742 mmHg 82%
    02:00 +6°C° 0 mm 4 mps 742 mmHg 82%
    03:00 +6°C° 0 mm 4 mps 742 mmHg 81%
    04:00 +5°C° 0 mm 4 mps 742 mmHg 80%
    05:00 +5°C° 0 mm 4 mps 742 mmHg 79%
    06:00 +5°C° 0 mm 4 mps 742 mmHg 78%
    07:00 +5°C° 0 mm 4 mps 742 mmHg 77%
    08:00 +5°C° 0 mm 4 mps 742 mmHg 76%
    09:00 +7°C° 0 mm 4 mps 742 mmHg 71%
    10:00 +8°C° 0 mm 4 mps 742 mmHg 66%
    11:00 +10°C° 0 mm 4 mps 742 mmHg 61%
    12:00 +11°C° 0 mm 4 mps 742 mmHg 58%
    13:00 +11°C° 0 mm 4 mps 742 mmHg 56%
    14:00 +12°C° 0 mm 4 mps 741 mmHg 54%
    15:00 +11°C° 0 mm 4 mps 741 mmHg 59%
    16:00 +10°C° 0 mm 3 mps 741 mmHg 64%
    17:00 +9°C° 0 mm 2 mps 741 mmHg 69%
    18:00 +8°C° 0 mm 2 mps 741 mmHg 72%
    19:00 +7°C° 0 mm 2 mps 741 mmHg 76%
    20:00 +6°C° 0 mm 2 mps 742 mmHg 80%
    21:00 +5°C° 0 mm 2 mps 742 mmHg 82%
    22:00 +5°C° 0 mm 2 mps 742 mmHg 84%
    23:00 +5°C° 0 mm 2 mps 742 mmHg 86%
    Show more